#timestamp,LO_Frequency,Hit,StdDev 
1636387215.2,286047000.3,N
1636387235.1,286047002.4,N
1636387236.0,286047002.4,N
1636387255.8,286047002.6,N
1636387275.7,286047001.9,N
1636387295.5,286047001.3,N
1636387315.3,286047004.0,Y
1636387335.2,286047002.2,P
1636387355.0,286047002.8,P
1636387355.9,286047002.8,P
1636387375.8,286047002.6,Y
1636387395.6,286046999.4,P
1636387415.4,286046998.9,N
1636387435.3,286046998.2,N
1636387455.1,286046998.6,N
1636387475.8,286047000.3,N
1636387495.7,286047002.8,N
1636387515.5,286047000.2,N
1636387535.4,286047000.9,N
1636387555.2,286047002.2,N
1636387575.0,286047002.0,N
1636387575.9,286047002.0,N
1636387595.8,286047002.3,N
1636387615.6,286047002.3,N
1636387635.4,286047002.8,N
1636387655.3,286047002.3,N
1636387675.1,286047003.6,N
1636387695.9,286047001.6,N
1636387715.7,286047001.8,N
1636387735.5,286047003.6,N
1636387755.4,286047007.6,Y
1636387775.2,286047006.8,P
1636387795.0,286047007.3,N
1636387795.9,286047007.3,N
1636387815.8,286047004.9,N
1636387835.6,286047008.7,Y
1636387855.5,286047002.6,P
1636387875.3,286047000.3,N
1636387895.1,286046999.5,N
1636387915.9,286046997.3,N
1636387935.7,286046995.1,N
1636387955.5,286046997.8,N
1636387975.4,286046997.7,N
1636387995.2,286046997.4,N
1636388015.1,286046998.3,N
1636388016.0,286046998.3,N
1636388035.8,286047001.1,N
1636388055.6,286046999.4,N
1636388075.5,286046996.6,N
1636388095.3,286046998.0,N
1636388115.2,286046994.9,N
1636388135.9,286046996.1,N
1636388155.7,286046993.8,N
1636388175.6,286046993.6,N
1636388195.4,286046991.7,N
1636388215.2,286046994.5,N
1636388235.1,286046993.3,N
1636388236.0,286046993.3,N
1636388255.8,286046993.8,N
1636388275.7,286046993.8,N
1636388295.5,286046994.5,N
1636388315.3,286046994.3,N
1636388335.2,286046993.4,N
1636388355.0,286046994.5,N
1636388355.9,286046994.5,N
1636388375.8,286046996.3,N
1636388395.6,286046993.6,N
1636388415.4,286046996.4,N
1636388435.3,286046993.8,N
1636388455.1,286046996.4,N
1636388475.8,286046995.8,N
1636388495.7,286046995.5,N
1636388515.5,286046997.3,N
1636388535.4,286046997.9,N
1636388555.2,286046997.6,N
1636388575.0,286046997.9,N
1636388575.9,286046997.9,N
1636388595.8,286046997.9,N
1636388615.6,286046997.8,N
1636388635.4,286046997.7,N
1636388655.3,286046996.7,N
1636388675.1,286046999.6,N
1636388695.9,286047001.1,N
1636388715.7,286047000.0,N
1636388735.5,286046999.0,N
1636388755.4,286046999.5,N
1636388775.2,286046999.0,N
1636388795.0,286046999.0,N
1636388795.9,286046999.0,N
1636388815.8,286047000.5,N
1636388835.6,286047000.7,N
1636388855.5,286046998.4,N
1636388875.3,286046998.4,N
1636388895.1,286046996.5,N
1636388915.9,286046999.3,N
1636388935.7,286046996.6,N
1636388955.5,286046999.4,N
1636388975.4,286046999.5,N
1636388995.2,286046998.8,N
1636389015.1,286046999.3,N
1636389016.0,286046999.3,N
1636389035.8,286046998.2,N
1636389055.6,286047000.4,N
1636389075.5,286046998.7,N
1636389095.3,286046998.7,N
1636389115.1,286047000.9,N
1636389135.9,286046998.1,N
1636389155.7,286046999.4,N
1636389175.6,286046996.9,N
1636389195.4,286046999.1,N
1636389215.2,286046996.5,N
1636389235.1,286046999.0,N
1636389236.0,286046999.0,N
1636389255.8,286046998.3,N
1636389275.7,286046998.3,N
1636389295.5,286047002.3,N
1636389315.3,286047000.1,N
1636389335.2,286046998.2,N
1636389355.0,286046998.6,N
1636389355.9,286046998.6,N
1636389375.7,286047001.1,N
1636389395.6,286047001.2,N
1636389415.4,286046999.9,N
1636389435.3,286046999.7,N
1636389455.1,286047002.8,N
1636389456.0,286047002.8,N
1636389475.8,286047003.9,N
1636389495.7,286047005.5,Y
1636389515.5,286047004.0,P
1636389535.4,286047000.1,N
1636389555.2,286047001.8,N
1636389575.0,286046999.8,N
1636389575.9,286046999.8,N
1636389595.8,286046998.2,N
1636389615.6,286047001.0,N
1636389635.4,286047000.5,N
1636389655.3,286047000.6,N
1636389675.1,286047000.6,N
1636389695.9,286046999.7,N
1636389715.7,286047001.5,N
1636389735.5,286047005.2,Y
1636389755.4,286047003.8,P
1636389775.2,286047001.4,N
1636389795.1,286047003.2,N
1636389796.0,286047003.2,N
1636389815.8,286047003.5,N
1636389835.6,286047003.4,N
1636389855.5,286047004.7,Y
1636389875.3,286047003.9,P
1636389895.1,286047001.8,P
1636389915.9,286047002.2,N
1636389935.7,286046999.7,N
1636389955.6,286047002.8,N
1636389975.4,286047001.9,N
1636389995.2,286047002.7,N
1636390015.1,286046999.7,N
1636390016.0,286046999.7,N
1636390035.8,286047002.7,N
1636390055.7,286047001.4,N
1636390075.5,286047002.9,N
1636390095.3,286047005.2,Y
1636390115.2,286047004.0,P
1636390135.0,286047004.3,P
1636390135.9,286047004.3,P
1636390155.8,286046999.7,N
1636390175.6,286047002.7,N
1636390195.4,286046998.6,N
1636390215.3,286046997.1,N
1636390235.1,286046997.6,N
1636390255.8,286046994.9,N
1636390275.7,286046995.1,N
1636390295.5,286046993.3,N
1636390315.4,286046993.5,N
1636390335.2,286046995.6,N
1636390355.0,286046997.2,N
1636390355.9,286046997.2,N
1636390375.8,286046997.5,N
1636390395.6,286046995.5,N
1636390415.5,286046994.0,N
1636390435.3,286046994.5,N
1636390455.1,286046991.9,N
1636390475.9,286046992.2,N
1636390495.7,286046992.4,N
1636390515.5,286046990.1,N
1636390535.4,286046992.3,N
1636390555.2,286046990.5,N
1636390575.0,286046990.2,N
1636390576.0,286046990.2,N
1636390595.8,286046990.1,N
1636390615.6,286046990.7,N
1636390635.5,286046990.9,N
1636390655.3,286046990.4,N
1636390675.1,286046992.6,N
1636390695.9,286046992.3,N
1636390715.7,286046992.8,N
1636390735.5,286046992.0,N
1636390755.4,286046991.7,Y
1636390775.2,286047000.6,P
1636390795.1,286047000.7,N
1636390796.0,286047000.7,N
